User: anonymous   Login
Location: Shades State Park
(39.9310°N, 87.0690°W)
Time: 07:41:56
(UTC-05:00)
Language:

H-2A R/B - Orbit

View from above orbital plane
View from above orbital plane
View from above satellite
View from above satellite

Ground track
Ground track

The orbit data is extracted from the following two-line orbital elements,

1 27601U 02056E   17350.16576348  .00000040  00000-0  29574-4 0  9990
2 27601  98.3555  51.4721 0073248 115.4761 297.9452 14.31814725783857
Epoch (UTC): 16 December 2017 03:58:41
Eccentricity: 0.0073248
inclination: 98.3555°
perigee height: 733 km
apogee height: 838 km
right ascension of ascending node: 51.4721°
argument of perigee: 115.4761°
revolutions per day: 14.31814725
mean anomaly at epoch: 297.9452°
orbit number at epoch: 78385

The dashed part of the orbit path shows where the satellite is in the earth's shadow,  

DLR